Lid_Strength_Index
11 13 14 12 13 13 13 14 15 13 11 13 13 13 12 12 12 13 13 13 13 13 13 13 12 10 10 10 10 9 9 8 8 8 9 9 10 11 11 11 10 11 10 10
12 14 11 11 11 12 13 14 15 13 12 13 13 14 12 12 12 11 11 12 12 13 14 13 12 11 10 10 10 10 9 9 8 7 9 10 12 13 13 13 13 13 13 13
13 11 10 10 12 12 13 14 14 13 13 14 15 16 14 11 11 11 11 10 11 12 13 13 12 11 11 11 10 10 9 8 8 10 11 13 13 13 14 15 15 15 14 14
12 10 11 11 12 11 14 11 12 13 15 17 14 18 15 13 12 12 11 11 11 12 12 13 12 11 11 10 10 9 9 9 11 11 12 13 14 15 15 16 16 15 15 15
12 12 12 12 12 11 12 11 13 14 16 17 17 18 16 14 13 11 9 11 12 12 13 13 12 11 10 11 11 10 10 11 11 11 12 13 16 16 16 16 16 16 16 16
12 11 11 11 11 11 11 12 13 15 16 19 16 16 17 14 12 12 11 12 12 13 13 13 12 11 11 12 12 12 12 11 11 12 13 14 16 16 16 17 17 17 17 17
13 12 12 11 12 12 12 15 19 19 20 19 16 18 14 13 11 11 10 12 14 14 14 14 14 13 12 13 13 12 12 12 12 13 14 15 15 15 16 17 17 17 17 18
15 16 13 12 12 13 14 15 19 21 21 20 17 19 16 12 11 12 12 12 14 15 15 14 13 13 12 13 14 13 13 13 14 15 15 15 15 16 16 17 17 17 18 18
16 16 13 13 12 11 15 15 13 17 25 22 18 16 14 13 13 13 13 14 16 16 15 15 14 14 14 14 14 14 15 14 15 15 15 15 16 16 17 17 17 18 18 18
13 17 15 14 12 14 14 12 17 18 23 24 19 19 16 15 14 13 13 14 15 16 16 16 15 15 14 14 15 16 15 15 15 15 15 15 16 16 17 17 18 18 18 18
12 13 17 15 15 15 15 16 15 15 18 21 23 18 15 12 12 13 13 13 14 15 15 16 16 16 15 15 16 16 16 16 16 16 16 16 17 17 17 18 18 18 18 19
12 12 18 16 15 15 15 15 15 18 19 19 19 16 14 13 13 13 12 13 14 14 15 15 16 16 17 16 16 16 17 16 16 16 17 17 17 17 18 18 18 19 18 19
11 14 19 17 16 16 16 15 13 14 17 17 19 16 14 14 14 13 12 13 14 14 15 16 16 17 17 16 16 17 16 16 16 17 17 18 18 18 18 18 19 19 19 19
9 12 15 16 15 15 17 16 14 13 16 16 16 14 15 14 13 12 13 14 15 15 15 16 16 16 16 16 16 16 17 16 17 17 17 18 18 18 18 18 19 18 18 18
10 14 13 12 13 14 15 14 14 15 14 16 14 14 12 12 13 12 12 14 15 15 15 15 15 16 16 16 16 16 16 17 17 17 18 18 18 18 19 18 18 18 18 18
11 14 12 14 12 14 14 15 14 14 13 14 13 14 11 12 12 13 13 13 14 14 14 14 14 15 16 16 16 16 16 17 17 17 18 18 18 18 18 18 18 18 18 19
12 13 14 17 13 15 17 14 14 14 13 13 15 13 12 12 11 11 12 13 13 13 13 14 14 14 15 15 15 16 16 17 17 18 18 18 18 18 17 17 17 18 18 18
13 13 14 17 15 21 13 11 10 11 11 12 12 12 11 11 10 10 11 12 12 12 12 13 13 13 14 14 15 15 17 17 17 18 17 17 17 17 17 17 17 18 18 18
9 12 15 17 18 15 13 14 13 13 12 10 10 10 9 9 12 11 11 10 10 11 11 11 12 13 14 15 15 16 18 18 17 18 17 17 17 17 17 17 17 17 18 18
10 10 14 16 19 20 13 13 11 11 15 10 10 9 9 11 13 10 8 11 12 12 12 13 14 15 15 15 16 17 18 18 18 17 16 16 16 16 17 16 17 17 17 17
14 14 16 16 17 15 15 16 11 16 14 18 14 12 12 11 9 13 14 14 14 14 14 15 14 14 15 16 16 17 17 17 16 16 16 16 16 16 16 16 17 19 18 19
15 16 16 15 17 19 16 15 13 14 17 17 16 16 16 15 15 15 15 16 15 15 15 15 15 15 15 16 15 16 16 15 15 16 17 16 16 16 17 17 19 19 18 19
15 13 15 14 14 17 16 17 16 16 18 17 16 16 16 16 17 16 17 16 16 16 16 16 15 16 16 15 14 15 15 17 17 17 17 17 17 18 18 18 20 20 20 19
15 14 14 14 15 16 16 14 14 16 16 16 16 15 16 16 17 16 17 17 16 17 17 17 16 16 18 17 17 16 17 17 17 17 18 19 19 20 20 19 19 19 19 19
15 13 16 17 16 16 15 14 13 14 14 15 16 16 16 17 17 16 17 17 17 18 18 17 17 17 18 19 19 19 19 18 18 19 20 20 20 20 21 22 20 19 22 17
14 14 16 16 14 13 13 13 12 13 14 15 16 16 16 16 17 17 17 18 18 18 19 19 20 20 21 20 20 20 19 18 19 21 21 21 21 22 22 22 24 16 15 13